User: anonymous   Login
Location: Ostrava
(49.8330°N, 18.2830°E)
Time: 16:55:53
(UTC+02:00)
Language:

Iridium 7 - Orbit

View from above orbital plane
View from above orbital plane
View from above satellite
View from above satellite

Ground track
Ground track

The orbit data is extracted from the following two-line orbital elements,

1 24793U 97020B   16126.43323586  .00000014  00000-0 -19848-5 0  9994
2 24793  86.3946 129.4319 0002240  85.0538 275.0913 14.34218953994750
Epoch (UTC): 05 May 2016 10:23:51
Eccentricity: 0.0002240
inclination: 86.3946°
perigee height: 776 km
apogee height: 779 km
right ascension of ascending node: 129.4319°
argument of perigee: 85.0538°
revolutions per day: 14.34218953
mean anomaly at epoch: 275.0913°
orbit number at epoch: 99475

The dashed part of the orbit path shows where the satellite is in the earth's shadow,  

DLR